Regional Weather Roundup
Issued by NWS

Home | Current Version | Previous Version | Graphics & Text | Print | Product List | Glossary On
Versions: 1 2 3 4 5 6 7 8 9 10 11 12 13 14 15 16 17 18 19 20 21 22 23 24 25 26 27 28 29 30 31 32 33 34 35 36 37 38 39 40 41 42 43 44 45 46 47 48 49 50
000
ASUS43 KDTX 011601
RWRMI
MICHIGAN HOURLY REGIONAL WEATHER ROUNDUP
NATIONAL WEATHER SERVICE DETROIT/PONTIAC MI
1200 PM EDT MON SEP 01 2014

NOTE: "FAIR" INDICATES FEW OR NO CLOUDS BELOW 12,000 FEET WITH NO
SIGNIFICANT WEATHER AND/OR OBSTRUCTION TO VISIBILITY.

MIZ047>049-052>055-059>063-066>070-074>076-081>083-011700-
SOUTHEAST LOWER MICHIGAN

CITY           SKY/WX    TMP DP  RH WIND       PRES   REMARKS
ADRIAN         PTSUNNY   78  72  81 SW15      29.89F
ALMA           CLOUDY    76  71  85 S13       29.80F
BAD AXE        PTSUNNY   80  73  79 S13G20    29.83F
CARO           PTSUNNY   79  71  77 S14       29.82F
DETROIT CITY   LGT RAIN  76  71  85 S13G21    29.88F
DETROIT        LGT RAIN  75  72  90 S13       29.89S
FLINT          CLOUDY    78  68  71 S16G23    29.85S
GROSSE ILE     CLOUDY    73  70  88 S14       29.89S
HILLSDALE      CLOUDY    77  74  90 S9G16     29.87F FOG
HOWELL         CLOUDY    75  70  86 S8        29.86F

CITY           SKY/WX    TMP DP  RH WIND       PRES   REMARKS
JACKSON        PTSUNNY   77  69  76 S17       29.85F
LAMBERTVILLE   CLOUDY    79  70  73 S3        29.89F
LANSING        PTSUNNY   77  70  79 S16       29.82F
LAPEER         CLOUDY    77  68  74 S12       29.86F
MASON          CLOUDY    76  70  80 S6G17     29.84F
MONROE         CLOUDY    77  72  83 S10       29.88F
MT. CLEMENS    PTSUNNY   77  70  79 S13       29.87F
PONTIAC        CLOUDY    73  68  84 S14       29.88S HAZE
PORT HOPE        N/A     80  68  66 VRB7G17   29.80F
PORT HURON     CLOUDY    77  73  88 S13G24    29.87F
TRI CITIES     PTSUNNY   80  71  74 S14       29.81F
TROY           CLOUDY    79  70  74 S8        29.88F
SAGINAW HB     PTSUNNY   79  72  78 S12       29.81F
$$
MIZ043>046-050>051-056>058-064>065-071>073-077>080-011700-
SOUTHWEST LOWER MICHIGAN

CITY           SKY/WX    TMP DP  RH WIND       PRES   REMARKS
BATTLE CREEK   PTSUNNY   78  71  79 S15       29.81F
BENTON HARBOR  CLOUDY    75  71  87 S12G22    29.77S
BIG RAPIDS     CLOUDY    76  72  87 S10G18    29.75R
COLDWATER      CLOUDY    78  72  80 S12G18    29.84F
FREMONT        CLOUDY    75  71  87 S13G18    29.75R
HOLLAND        CLOUDY    77  72  84 S14G23    29.78R
GRAND RAPIDS   PTSUNNY   79  74  84 S18       29.76F
IONIA          CLOUDY    77  71  81 S15       29.78F
KALAMAZOO      CLOUDY    78  70  76 S20G25    29.80F
LUDINGTON      CLOUDY    74  72  92 SW20G29   29.71F FOG
MARSHALL       CLOUDY    77  71  82 S10G21    29.82F
MOUNT PLEASANT CLOUDY    76  71  86 S10G17    29.77F
MUSKEGON       CLOUDY    76  70  82 S20G32    29.77R
SOUTH HAVEN    CLOUDY    77  72  84 S12G17    29.78R
$$
MIZ016>042-011700-
NORTHERN LOWER MICHIGAN

CITY           SKY/WX    TMP DP  RH WIND       PRES   REMARKS
ALPENA         PTSUNNY   79  70  74 S14       29.76F
BEAVER ISLAND  CLOUDY    73  69  87 S8        29.68F
BELLAIRE       PTSUNNY   78  68  71 S8        29.71R
CADILLAC       CLOUDY    77  69  77 S15G26    29.74R
CHARLEVOIX     PTSUNNY   77  70  79 S6        29.74R
FRANKFORT      CLOUDY    73  67  84 S10G17    29.69F HAZE
GAYLORD        PTSUNNY   73  67  81 S14       29.74F
GRAYLING       CLOUDY    74  70  87 SE13G18   29.75F
HARBOR SPRINGS MOSUNNY   81  68  65 S8        29.70S
HOUGHTON LAKE  CLOUDY    72  68  87 SE10      29.76F
MANISTEE       CLOUDY    75  70  83 SW8       29.69F
OSCODA         MOSUNNY   79  71  75 S14       29.78F
PELLSTON       MOSUNNY   81  69  67 S7        29.70F
ROGERS CITY    MOSUNNY   79  72  78 S13       29.74F
TRAVERSE CITY  CLOUDY    77  68  73 SW5       29.71R
$$
MIZ007>008-015-011700-
EASTERN UPPER MICHIGAN

CITY           SKY/WX    TMP DP  RH WIND       PRES   REMARKS
KINROSS        CLOUDY    73  68  83 SE12      29.72S
MACKINAC ISLAN CLOUDY    73  69  88 CALM      29.70F
NEWBERRY       CLOUDY    69  66  92 S9        29.69S
S. S. MARIE    CLOUDY    69  63  81 E7G16     29.72S
$$
MIZ004>006-011>014-085-011700-
CENTRAL UPPER MICHIGAN

CITY           SKY/WX    TMP DP  RH WIND       PRES   REMARKS
MANISTIQUE     FOG       67  66  99 SW12G17   29.68S VSB<1/4
ESCANABA       CLOUDY    68  64  88 SW12G17   29.65F
MENOMINEE      CLOUDY    68  63  83 W10       29.68S
SAWYER-GWINN   LGT RAIN  66  64  94 SW14G20   29.64F
$$
MIZ001>003-009>011-084-011700-
WESTERN UPPER MICHIGAN

CITY           SKY/WX    TMP DP  RH WIND       PRES   REMARKS
IRON MOUNTAIN  RAIN      65  63  93 SW6       29.65F FOG
HOUGHTON       LGT RAIN  64  61  90 SW8       29.59R
COPPER HARBOR    N/A     65  62  90 VRB3      29.56R
$$

ABBREVIATIONS USED IN REMARKS
   TC - TEMPERATURE IN CELSIUS
  WCI - WIND CHILL INDEX
   HX - HEAT INDEX
  VSB - VISIBILITY




USA.gov is the U.S. government's official web portal to all federal, state and local government web resources and services.